Forside
METAR-TAF:

METAR-TAF

Lufthavne :

Clarion Municipal Airport

Clarion, Iowa, USA

Breddekreds: 42-45N, længdekreds: 093-46W, højde: 354 m

Aktuelle vejr

Denne rapport blev lavet for 27 minutter siden, kl. 01:35 UTC
Vind 6 kt fra nord
Temperatur 17°C
Fugtighed 39%
Tryk 1015 hPa
Sigt: 16.1 km
skyfri

METAR: KCAV 220135Z AUTO 36006KT 10SM CLR 17/03 A2998 RMK A01

Tid: 21:02 (02:02 UTC)


TAF: fraværende

Vejrobservationer og prognoser fra mere end 4000 lufthavne (METAR og TAF).

De gule og røde prikker repræsenterer de meteorologiske stationer.

Flyt musen over at se navnet på stationen.

Så klik over at se vejr observationer og prognoser.

At skifte det kort: Klik på de grønne knapper med et sort kors for at zoome ind; på den grønne knap med en bindestreg for at zoome ud; eller på de grønne pile for tilstødende kort.


METAR-TAF: